Wind_Speed
3 10 11 10 11 13 19 22 12 12 13 12 13 14 17 17 15 16 17 19 21 23 21 22 25 30 30 26 26 27 28 25 26 22 20 17 9 8 7 5 5 7 6
9 8 10 10 12 12 18 21 15 12 16 15 15 16 19 20 19 18 17 17 18 21 21 15 21 24 22 34 24 28 28 21 17 15 15 12 11 6 4 6 6 6 5
12 11 12 12 13 13 14 20 13 12 13 18 19 20 22 20 21 20 21 14 18 17 25 15 23 19 24 29 24 21 17 16 13 11 10 5 4 5 7 6 6 8 8
11 11 12 13 14 15 12 16 22 17 13 12 11 16 21 20 17 17 24 21 19 19 22 16 21 28 27 20 21 19 10 13 11 10 7 7 8 7 5 7 8 10 13
10 9 9 9 10 13 12 13 16 18 13 11 16 17 19 18 15 16 19 16 16 19 29 29 20 20 20 20 21 16 10 9 10 9 9 7 6 6 6 9 13 18 22
8 8 7 9 10 11 11 8 10 16 17 14 17 16 14 12 14 13 16 18 12 13 18 23 20 22 23 18 15 15 15 14 12 9 7 5 4 6 12 18 22 25 27
6 7 8 8 9 10 11 11 11 16 19 19 13 12 12 13 15 15 16 16 14 17 16 18 17 18 18 17 14 11 9 7 5 4 6 10 12 17 19 23 26 28 29
6 6 8 9 9 10 13 15 16 17 17 19 19 17 19 21 19 19 19 18 19 18 17 18 19 17 14 13 13 11 9 8 9 10 12 16 19 19 21 24 24 25 28
4 5 8 11 13 13 13 13 13 14 16 14 13 14 15 16 16 15 15 15 16 17 17 16 15 15 13 11 10 7 6 8 10 13 16 18 20 21 22 23 26 29 32
3 5 7 11 13 14 14 12 10 10 13 13 14 15 13 11 10 11 11 10 10 11 11 11 10 9 8 7 6 7 9 12 14 15 16 19 19 20 23 27 32 35 39
3 6 7 8 11 12 12 12 11 9 8 7 8 8 7 10 11 8 5 3 3 4 5 6 5 6 7 7 9 10 13 14 16 16 17 19 22 24 27 33 37 41 45
3 6 7 6 7 9 9 7 6 6 7 6 6 6 7 6 6 5 5 5 5 5 6 8 10 9 8 9 10 11 13 14 15 18 20 24 26 28 31 36 39 44 48
8 7 7 7 6 6 6 4 4 5 6 6 4 4 4 4 5 5 5 4 4 3 2 2 7 10 11 11 12 13 15 17 20 23 26 28 31 34 37 40 46 49 50
11 10 9 9 9 7 7 6 4 3 2 1 1 2 3 5 6 5 4 4 4 4 5 7 9 11 13 15 16 18 20 22 25 27 29 31 34 39 44 46 51 53 53
14 15 13 12 11 11 10 9 7 5 3 2 3 5 7 9 9 11 11 11 11 12 13 14 15 16 17 18 19 20 21 25 26 28 32 36 40 44 49 54 57 60 58
17 18 19 18 17 17 16 15 14 13 12 13 14 15 15 15 16 17 17 17 18 17 17 17 17 18 19 20 21 19 20 26 30 33 37 42 46 50 50 50 54 57 59
20 20 20 23 24 22 22 22 22 23 22 22 23 23 22 22 20 21 20 20 21 20 20 21 21 22 23 24 22 22 26 31 35 38 42 44 45 42 50 58 63 63 67
22 22 21 21 22 26 28 30 31 31 30 28 28 26 24 23 22 24 24 24 23 23 24 25 25 23 25 23 27 32 34 36 38 41 43 44 45 53 61 67 71 72 71
31 25 23 24 25 26 27 27 28 28 27 26 26 27 26 24 25 25 26 26 25 24 25 25 26 24 27 30 33 35 36 39 41 45 45 48 52 60 64 71 76 71 58
35 32 28 27 26 27 27 28 30 31 29 27 26 26 27 28 27 27 27 26 27 28 27 24 26 28 30 34 36 37 40 42 44 47 52 56 58 66 75 64 53 50 53
30 35 32 30 30 26 27 30 29 29 30 28 30 33 40 35 31 28 30 30 29 30 28 29 31 34 36 37 39 42 46 46 47 49 52 53 60 67 61 47 51 51 53
33 34 35 34 35 35 34 33 33 33 35 35 40 37 38 42 38 32 34 33 31 31 31 33 32 34 37 40 43 47 50 51 49 52 56 65 68 59 51 49 50 54 58
36 41 41 40 41 42 46 41 32 39 42 44 45 41 41 39 41 37 40 24 30 33 32 33 35 38 41 43 46 53 53 54 52 55 59 54 49 50 49 49 52 55 56
31 33 38 41 38 37 42 40 43 47 48 45 45 44 44 41 41 44 27 28 31 34 34 36 38 37 35 41 50 59 55 56 58 58 51 47 45 46 47 49 52 54 55
31 33 32 34 33 29 31 32 38 42 45 45 43 45 42 39 48 28 27 31 34 32 37 36 36 38 43 46 45 46 55 59 59 44 41 43 42 43 45 49 52 51 52
36 40 43 40 36 31 33 34 34 36 42 43 45 45 46 42 40 41 39 37 35 38 44 48 40 40 50 42 46 54 53 44 39 40 41 38 39 42 46 48 49 50 52
Wind_Direction
5 359 7 29 35 33 32 36 54 62 62 80 99 91 107 134 149 152 153 156 169 177 184 196 203 191 200 188 179 179 185 173 179 201 205 206 219 196 154 163 184 205 207
32 36 41 52 52 46 43 40 54 77 76 84 92 90 110 120 131 141 152 169 169 187 193 176 171 187 203 177 177 160 160 164 182 200 212 217 186 157 128 195 202 231 244
55 46 58 65 63 55 47 48 58 50 87 88 96 86 120 116 117 122 143 152 171 175 186 190 205 199 166 152 156 150 151 153 162 181 166 151 119 162 194 212 235 259 277
72 52 61 74 65 66 52 61 64 67 76 88 111 92 107 108 111 119 139 146 111 135 143 148 164 156 164 165 167 172 157 138 146 150 160 176 188 193 208 239 261 270 276
62 54 58 67 67 68 67 57 67 71 86 77 127 118 113 108 114 109 130 153 133 123 132 131 136 137 148 143 150 144 140 144 144 161 175 190 206 224 249 285 288 278 272
58 57 60 67 81 77 73 68 64 81 79 107 115 107 109 101 116 106 101 137 111 139 153 140 164 157 147 141 143 152 157 157 159 169 188 218 259 280 263 262 265 269 275
53 73 79 85 78 76 76 90 91 90 93 90 97 119 113 116 112 117 122 126 138 135 141 138 127 126 129 135 135 138 136 127 140 186 223 236 245 253 263 269 273 276 277
69 78 91 90 85 89 98 100 102 100 94 97 99 98 101 104 109 115 118 117 111 116 126 134 133 136 139 141 142 146 150 173 206 224 235 243 254 269 274 277 280 287 293
80 106 110 105 103 104 106 104 101 105 110 110 101 100 104 109 114 115 118 124 128 132 136 139 137 145 150 154 161 170 207 233 246 252 258 269 275 279 287 297 301 303 299
128 126 133 128 122 119 115 106 102 95 94 99 107 112 108 101 100 105 108 109 120 130 133 136 146 158 180 196 209 230 248 259 266 275 281 288 294 296 298 301 299 301 303
185 154 144 151 146 141 135 129 120 112 108 108 106 103 105 117 123 117 110 122 154 167 172 180 186 217 237 249 258 266 268 275 279 286 292 296 298 302 304 305 308 307 306
204 203 182 173 167 165 163 159 152 140 130 113 97 95 92 82 76 96 122 141 161 191 219 235 242 241 257 268 266 266 269 279 286 291 294 295 301 301 296 293 297 298 298
191 203 200 183 185 182 178 172 157 142 130 121 101 65 51 48 46 46 43 36 34 29 29 252 251 261 272 278 277 275 280 292 296 291 290 293 294 297 299 300 305 310 310
201 205 210 211 200 199 197 187 180 177 165 143 68 34 13 11 11 6 356 339 312 297 283 277 278 280 281 282 283 283 287 291 290 291 291 295 298 304 308 306 306 306 309
215 213 219 218 220 219 221 221 219 223 242 281 310 321 322 317 314 310 310 315 308 303 299 298 295 291 287 285 285 289 294 291 291 295 297 301 303 303 304 306 306 308 309
227 224 225 230 230 232 233 237 244 251 256 274 287 295 298 295 292 292 292 294 299 302 300 300 300 297 295 292 288 293 294 293 295 298 299 300 300 303 308 311 316 314 310
231 231 230 234 239 243 248 250 252 257 265 275 281 285 289 290 289 287 288 290 293 292 289 290 291 291 290 289 295 295 291 291 296 301 303 302 302 303 308 312 313 312 313
238 236 235 238 239 246 250 256 262 267 272 274 277 278 279 281 281 282 283 283 284 285 287 288 289 288 290 294 293 295 302 305 304 300 302 306 309 311 313 313 314 313 311
238 237 246 247 252 251 253 256 261 264 267 269 278 280 276 276 280 282 281 280 280 282 283 285 286 291 290 292 295 299 302 302 303 305 302 307 306 307 312 311 307 306 308
233 235 244 250 253 258 259 265 266 268 266 269 274 277 283 276 272 274 276 275 276 278 280 285 285 286 288 291 292 293 297 300 305 307 305 308 312 311 302 306 305 311 324
238 233 240 252 261 261 267 262 262 266 268 273 277 279 292 273 270 269 271 274 274 276 284 280 282 286 288 292 294 297 300 302 303 303 307 308 307 304 300 299 317 322 317
241 241 245 250 254 263 265 269 266 268 270 273 276 280 289 290 289 265 265 269 277 282 286 288 290 289 291 293 295 297 298 300 299 304 306 304 295 294 312 322 320 316 316
258 258 257 255 258 264 267 252 253 271 270 273 274 280 284 276 282 274 275 263 277 277 279 285 287 288 290 294 296 298 303 298 296 298 299 294 300 312 319 317 314 313 316
259 261 263 263 263 261 267 275 272 269 267 268 275 277 278 276 290 283 263 265 262 271 279 281 286 294 308 302 298 301 302 298 297 295 287 301 313 317 313 312 315 319 322
258 259 257 261 265 260 266 271 267 266 261 264 268 269 280 280 288 285 275 273 265 277 281 281 281 288 294 303 304 301 300 297 294 289 306 312 312 310 312 316 320 321 325
252 254 259 258 262 266 267 274 268 267 268 268 269 273 279 277 277 277 283 276 272 269 277 284 281 298 302 295 297 294 292 287 292 309 311 309 310 314 318 322 323 326 330
Height
5735 5733 5730 5728 5726 5723 5720 5715 5713 5712 5711 5710 5711 5711 5712 5715 5721 5725 5729 5734 5739 5743 5749 5754 5758 5762 5768 5771 5776 5782 5789 5793 5800 5806 5809 5812 5814 5816 5819 5822 5826 5829 5829
5736 5735 5732 5730 5728 5726 5724 5721 5718 5717 5717 5716 5717 5717 5719 5720 5724 5728 5733 5738 5742 5745 5748 5755 5759 5763 5768 5772 5776 5782 5789 5794 5799 5804 5808 5811 5814 5818 5819 5821 5823 5824 5824
5739 5737 5735 5733 5731 5729 5729 5727 5725 5724 5723 5723 5724 5723 5725 5728 5730 5732 5737 5742 5745 5746 5748 5755 5760 5765 5768 5774 5779 5785 5789 5794 5798 5805 5808 5812 5814 5815 5817 5819 5821 5823 5823
5741 5740 5738 5737 5735 5734 5734 5733 5730 5729 5728 5728 5729 5730 5731 5734 5736 5739 5742 5745 5749 5750 5753 5757 5761 5768 5774 5778 5782 5787 5792 5796 5800 5805 5809 5812 5813 5814 5816 5820 5820 5820 5819
5743 5743 5742 5741 5739 5738 5738 5737 5736 5734 5734 5732 5733 5735 5737 5738 5741 5745 5747 5751 5754 5756 5759 5762 5767 5771 5775 5779 5784 5789 5793 5797 5800 5803 5808 5811 5813 5814 5815 5815 5816 5816 5816
5745 5745 5744 5743 5743 5742 5742 5742 5742 5740 5739 5740 5741 5742 5743 5745 5746 5749 5752 5755 5756 5759 5763 5766 5769 5773 5777 5782 5787 5791 5795 5799 5802 5805 5808 5810 5810 5810 5814 5815 5815 5815 5813
5747 5747 5747 5747 5746 5746 5746 5746 5746 5746 5746 5746 5746 5747 5748 5750 5751 5754 5757 5760 5762 5765 5767 5770 5772 5777 5780 5784 5787 5791 5794 5796 5800 5805 5808 5809 5810 5811 5811 5813 5812 5811 5810
5750 5750 5750 5749 5749 5750 5750 5751 5752 5752 5752 5753 5754 5755 5755 5756 5759 5761 5763 5765 5766 5769 5772 5775 5777 5781 5784 5787 5790 5794 5796 5801 5805 5805 5806 5808 5809 5808 5809 5809 5806 5804 5801
5752 5752 5753 5752 5753 5754 5755 5756 5757 5758 5758 5759 5759 5760 5762 5763 5765 5766 5768 5770 5772 5774 5776 5778 5781 5785 5789 5791 5793 5795 5799 5801 5802 5803 5805 5805 5805 5805 5803 5801 5798 5795 5794
5753 5754 5755 5756 5756 5757 5758 5760 5761 5762 5763 5765 5765 5766 5767 5767 5768 5770 5771 5772 5775 5778 5780 5782 5785 5788 5791 5793 5793 5795 5796 5797 5799 5800 5801 5801 5800 5797 5797 5795 5792 5788 5782
5754 5755 5756 5757 5758 5760 5761 5762 5763 5765 5766 5767 5769 5770 5771 5772 5773 5774 5775 5776 5778 5779 5781 5783 5785 5787 5790 5790 5791 5792 5795 5796 5797 5796 5795 5794 5794 5793 5791 5785 5779 5775 5770
5753 5755 5757 5758 5760 5761 5762 5764 5765 5767 5768 5769 5770 5772 5773 5774 5774 5776 5778 5780 5782 5783 5784 5785 5788 5790 5790 5791 5791 5792 5794 5792 5791 5790 5789 5787 5785 5782 5780 5777 5775 5770 5764
5751 5754 5757 5758 5760 5761 5763 5764 5766 5767 5769 5771 5772 5773 5774 5775 5776 5777 5778 5778 5779 5780 5783 5785 5786 5786 5786 5786 5787 5787 5787 5785 5784 5784 5782 5781 5778 5776 5773 5766 5759 5752 5745
5750 5752 5755 5758 5760 5761 5763 5764 5766 5767 5769 5771 5772 5774 5774 5775 5775 5776 5777 5779 5780 5781 5781 5781 5781 5780 5781 5781 5780 5780 5781 5781 5780 5778 5776 5773 5768 5762 5757 5752 5747 5742 5736
5747 5750 5753 5755 5758 5760 5762 5764 5765 5767 5768 5770 5771 5772 5773 5774 5775 5775 5776 5776 5777 5778 5777 5777 5776 5777 5777 5777 5777 5777 5776 5773 5771 5769 5765 5761 5757 5753 5748 5743 5736 5730 5722
5744 5746 5750 5752 5754 5756 5758 5760 5763 5764 5766 5768 5769 5770 5771 5772 5772 5772 5772 5772 5773 5773 5773 5772 5772 5771 5770 5769 5769 5770 5768 5764 5762 5760 5756 5753 5748 5744 5738 5731 5724 5716 5709
5740 5742 5744 5748 5751 5753 5755 5757 5758 5759 5762 5764 5764 5766 5767 5767 5768 5767 5767 5767 5767 5768 5768 5767 5767 5766 5764 5762 5762 5762 5761 5758 5755 5751 5747 5742 5737 5731 5726 5719 5712 5704 5696
5736 5738 5740 5742 5746 5747 5749 5751 5753 5755 5757 5759 5759 5761 5762 5761 5762 5762 5762 5762 5762 5761 5761 5760 5759 5759 5757 5757 5754 5751 5750 5747 5745 5740 5736 5731 5725 5720 5713 5705 5698 5690 5682
5731 5734 5736 5737 5739 5742 5743 5745 5746 5748 5750 5751 5754 5755 5755 5755 5755 5755 5755 5754 5754 5754 5752 5752 5750 5752 5750 5747 5746 5743 5740 5737 5733 5729 5724 5719 5713 5707 5699 5693 5687 5679 5672
5725 5727 5729 5731 5733 5734 5737 5739 5740 5741 5743 5744 5747 5747 5747 5747 5747 5746 5747 5746 5746 5745 5745 5745 5743 5743 5741 5738 5736 5733 5730 5726 5722 5718 5713 5708 5702 5695 5688 5683 5676 5669 5659
5715 5719 5722 5725 5726 5729 5729 5731 5732 5734 5735 5737 5738 5739 5737 5738 5740 5738 5738 5738 5737 5736 5737 5736 5735 5733 5730 5728 5726 5723 5719 5716 5712 5707 5702 5697 5691 5684 5676 5671 5663 5656 5650
5707 5711 5714 5717 5719 5720 5722 5723 5724 5725 5726 5727 5725 5732 5732 5724 5728 5731 5730 5729 5729 5727 5726 5725 5726 5723 5721 5718 5715 5712 5709 5705 5701 5695 5690 5686 5679 5674 5666 5659 5653 5648 5641
5699 5700 5704 5708 5710 5710 5710 5709 5712 5715 5715 5713 5714 5718 5719 5718 5718 5721 5720 5719 5720 5718 5717 5716 5715 5713 5711 5709 5706 5701 5697 5693 5688 5684 5680 5673 5667 5661 5655 5650 5645 5638 5629
5690 5691 5692 5694 5698 5700 5699 5698 5699 5702 5703 5704 5705 5707 5707 5705 5709 5710 5707 5708 5709 5708 5707 5706 5705 5704 5701 5698 5694 5690 5687 5682 5677 5672 5668 5662 5656 5651 5647 5641 5635 5626 5617
5681 5682 5683 5684 5687 5692 5691 5691 5690 5690 5691 5693 5696 5696 5694 5696 5696 5695 5696 5698 5699 5698 5696 5695 5694 5692 5688 5686 5681 5677 5674 5670 5666 5661 5657 5652 5647 5643 5637 5631 5623 5615 5607
5671 5671 5670 5675 5678 5681 5683 5682 5681 5680 5679 5683 5684 5686 5686 5686 5687 5688 5687 5686 5685 5685 5685 5683 5681 5679 5676 5673 5669 5665 5661 5658 5655 5651 5647 5642 5638 5634 5628 5620 5613 5606 5597